Location: Amsterdam
(30.7274°N, 84.4357°W)
Time: 06:47:27
(UTC+00:00)

S-56A Canister/Altair - All Passes

Search period start: 18 February 2026 00:00
Search period end: 28 February 2026 00:00
Orbit: 632 x 2485 km, 38.9° (Epoch: 17 February)

Date Brightness Start Highest point End Pass type
(mag) Time Alt. Az. Time Alt. Az. Time Alt. Az.
18 Feb - 02:28:26 10° S 02:31:42 19° SE 02:35:25 10° E night (unlit)
18 Feb - 04:29:37 10° WSW 04:34:37 80° NNW 04:41:48 10° ENE night (unlit)
18 Feb - 06:33:23 10° WNW 06:39:29 47° N 06:48:36 10° ENE visible
18 Feb - 08:37:06 10° WNW 08:45:11 64° NNE 08:57:25 10° E visible
18 Feb - 10:40:53 10° WNW 10:50:54 68° SSW 11:04:59 10° SE visible
18 Feb - 12:46:57 10° W 12:56:34 27° SW 13:07:51 10° S daylight
19 Feb - 01:54:46 10° SSE 01:57:04 14° SE 01:59:31 10° ESE night (unlit)
19 Feb - 03:55:03 10° WSW 03:59:48 88° SSE 04:06:20 10° ENE night (unlit)
19 Feb - 05:58:42 10° WNW 06:04:20 46° N 06:12:38 10° ENE night (unlit)
19 Feb - 08:02:24 10° WNW 08:09:49 59° NNE 08:21:09 10° E visible
19 Feb - 10:05:58 10° WNW 10:15:22 75° SSW 10:29:05 10° SE visible
19 Feb - 12:11:21 10° W 12:20:59 31° SW 12:32:50 10° SSE daylight
20 Feb - 03:20:30 10° SW 03:25:03 73° SSE 03:30:58 10° ENE night (unlit)
20 Feb - 05:24:01 10° W 05:29:15 46° N 05:36:48 10° ENE night (unlit)
20 Feb - 07:27:44 10° WNW 07:34:33 53° NNE 07:44:54 10° E visible
20 Feb - 09:31:09 10° WNW 09:39:56 82° SSW 09:53:06 10° SE visible
20 Feb - 11:35:57 10° W 11:45:27 35° SW 11:57:37 10° SSE visible
21 Feb - 02:45:59 10° SW 02:50:21 57° SSE 02:55:42 10° ENE night (unlit)
21 Feb - 04:49:21 10° W 04:54:15 47° N 05:01:07 10° ENE night (unlit)
21 Feb - 06:53:06 10° WNW 06:59:21 49° NNE 07:08:44 10° E visible
21 Feb - 08:56:24 10° WNW 09:04:33 89° SSW 09:17:03 10° ESE visible
21 Feb - 11:00:44 10° W 11:09:56 39° SW 11:22:14 10° SSE visible
21 Feb - 13:14:30 10° SW 13:15:26 10° SW 13:16:22 10° SW daylight
22 Feb - 02:11:30 10° SW 02:15:42 44° SE 02:20:30 10° ENE visible
22 Feb - 04:14:38 10° W 04:19:18 49° NNW 04:25:36 10° ENE night (unlit)
22 Feb - 06:18:28 10° WNW 06:24:12 45° N 06:32:39 10° E visible
22 Feb - 08:21:41 10° WNW 08:29:16 83° NNE 08:40:59 10° ESE visible
22 Feb - 10:25:39 10° WNW 10:34:28 43° SW 10:46:44 10° SSE visible
22 Feb - 12:35:20 10° WSW 12:39:56 13° SW 12:44:56 10° SSW daylight
23 Feb - 01:37:03 10° SSW 01:41:03 34° SE 01:45:20 10° E visible
23 Feb - 03:39:56 10° W 03:44:25 53° NNW 03:50:14 10° ENE night (unlit)
23 Feb - 05:43:51 10° WNW 05:49:07 41° N 05:56:41 10° ENE night (unlit)
23 Feb - 07:47:03 10° WNW 07:54:02 75° NNE 08:04:53 10° ESE visible
23 Feb - 09:50:42 10° WNW 09:59:03 48° SW 10:11:07 10° SE visible
23 Feb - 11:58:37 10° WSW 12:04:28 15° SW 12:11:07 10° SSW daylight
24 Feb - 01:02:38 10° SSW 01:06:24 26° SE 01:10:11 10° E visible
24 Feb - 03:05:12 10° W 03:09:36 59° NNW 03:15:00 10° ENE visible
24 Feb - 05:09:13 10° WNW 05:14:06 39° N 05:20:51 10° ENE night (unlit)
24 Feb - 07:12:27 10° WNW 07:18:54 67° NNE 07:28:49 10° ESE visible
24 Feb - 09:15:50 10° WNW 09:23:43 53° SSW 09:35:26 10° SE visible
24 Feb - 11:22:33 10° WSW 11:29:01 18° SW 11:36:43 10° S visible
25 Feb - 00:28:17 10° S 00:31:43 20° SE 00:35:02 10° E visible
25 Feb - 02:30:27 10° WSW 02:34:50 69° NNW 02:39:54 10° ENE visible
25 Feb - 04:34:34 10° WNW 04:39:07 37° N 04:45:11 10° ENE night (unlit)
25 Feb - 06:37:52 10° WNW 06:43:49 59° NNE 06:52:48 10° E visible
25 Feb - 08:41:04 10° WNW 08:48:28 59° SSW 08:59:41 10° SE visible
25 Feb - 10:46:53 10° W 10:53:36 20° SW 11:01:57 10° S visible
25 Feb - 23:54:02 10° S 23:57:00 16° SE 23:59:47 10° ESE visible
26 Feb - 01:55:40 10° WSW 02:00:07 83° NNW 02:04:54 10° ENE visible
26 Feb - 03:59:52 10° WNW 04:04:11 35° N 04:09:39 10° ENE night (unlit)
26 Feb - 06:03:20 10° WNW 06:08:48 52° NNE 06:16:51 10° E night (unlit)
26 Feb - 08:06:21 10° WNW 08:13:16 66° SSW 08:23:54 10° SE visible
26 Feb - 10:11:29 10° W 10:18:15 23° SW 10:26:59 10° S visible
26 Feb - 23:19:59 10° S 23:22:15 13° SE 23:24:20 10° ESE daylight
27 Feb - 01:20:51 10° WSW 01:25:25 81° SSE 01:29:58 10° ENE visible
27 Feb - 03:25:07 10° WNW 03:29:16 35° N 03:34:18 10° ENE night (unlit)
27 Feb - 05:28:46 10° WNW 05:33:49 46° NNE 05:40:59 10° E night (unlit)
27 Feb - 07:31:43 10° WNW 07:38:09 75° SSW 07:48:06 10° SE visible
27 Feb - 09:36:16 10° W 09:42:56 26° SW 09:51:51 10° SSE visible
27 Feb - 22:46:37 10° SSE 22:47:26 10° SE 22:48:13 10° SE daylight
